Location: Wien
(48.2082°N, 16.3738°E)
Time: 12:23:08
(UTC+02:00)

Tiros 1 despin weight - Pass Details

Date: 12 September 2024
Orbit: 573 x 615 km, 48.2° (Epoch: 06 October)

Event Time Altitude Azimuth Distance (km) Brightness Sun altitude
Rises 06:59:05 0° 255° (WSW) 2,884 ? 4.4°
Reaches altitude 10° 07:01:23 10° 254° (WSW) 1,981 ? 4.7°
Maximum altitude 07:05:57 80° 168° (SSE) 633 ? 5.5°
Drops below altitude 10° 07:10:31 10° 82° (E) 1,981 ? 6.3°
Sets 07:12:50 0° 81° (E) 2,883 ? 6.6°
